Weather History for Chadron, NE

Change the Weather History Date:

Saturday, March 9, 2013

  Actual Average Record
Temperature  
Mean Temperature 36 °F 34 °F  
Max Temperature 45 °F 49 °F 77 °F (1989)
Min Temperature 26 °F 19 °F -7 °F (1996)
Degree Days  
Heating Degree Days 29 31  
Month to date heating degree days 245 292  
Since 1 July heating degree days 5141 5544  
Cooling Degree Days 0 0  
Month to date cooling degree days 0 0  
Year to date cooling degree days 0 0  
Moisture  
Dew Point 25 °F    
Average Humidity 64    
Maximum Humidity 92    
Minimum Humidity 35    
Precipitation  
Precipitation 0.03 in 0.04 in 0.83 in (2000)
Month to date precipitation 0.03 0.32  
Year to date precipitation 0.88 1.29  
Sea Level Pressure  
Sea Level Pressure 29.88 in    
Wind  
Wind Speed 16 mph (North)    
Max Wind Speed 39 mph    
Max Gust Speed 51 mph    
Visibility 4 miles    
Events Fog , Snow    
T = Trace of Precipitation, MM = Missing Value Source: NWS Daily Summary

Daily Weather History Graph

Daily Weather History Graph

Search for Another Location

Airport:

Trip Planner

Search our weather history database for the weather conditions in past years. The results will help you decide how hot, cold, wet, or windy it might be!

Date:

Astronomy

Mar. 09, 2013 Rise Set
Actual Time 6:14 AM MST 5:52 PM MST
Civil Twilight 5:46 AM MST 6:20 PM MST
Nautical Twilight 5:13 AM MST 6:53 PM MST
Astronomical Twilight 4:40 AM MST 7:26 PM MST
Moon 4:42 AM MST (3/9) 3:54 PM MST (3/9)
Length of Visible Light 12h 34m
Length of Day
11h 37m
Waning Crescent, 5% of the Moon is Illuminated
Mar 9
Waning Crescent
Mar 11
New
Mar 19
First Quarter
Mar 27
Full
Apr 2
Last Quarter

Hourly Weather History & Observations

Time (MST) Temp. Windchill Dew Point Humidity Pressure Visibility Wind Dir Wind Speed Gust Speed Precip Events Conditions
12:11 AM 26.6 °F 22.6 °F 24.8 °F 93% 29.79 in 3.0 mi WNW 3.5 mph - N/A   Mostly Cloudy
12:22 AM 26.6 °F - 24.8 °F 93% 29.79 in 4.0 mi Calm Calm - N/A   Mostly Cloudy
12:53 AM 28.0 °F 24.2 °F 25.0 °F 88% 29.87 in 3.0 mi West 3.5 mph - N/A   Mostly Cloudy
1:01 AM 28.4 °F - 26.6 °F 93% 29.78 in 3.0 mi Calm Calm - N/A   Mostly Cloudy
1:24 AM 28.4 °F - 26.6 °F 93% 29.77 in 3.0 mi Calm Calm - N/A   Overcast
1:34 AM 28.4 °F - 26.6 °F 93% 29.78 in 3.0 mi Calm Calm - N/A   Overcast
1:44 AM 28.4 °F - 26.6 °F 93% 29.77 in 3.0 mi Calm Calm - N/A   Overcast
1:53 AM 28.0 °F - 26.1 °F 92% 29.85 in 3.0 mi Calm Calm - N/A   Overcast
2:53 AM 28.9 °F 23.9 °F 27.0 °F 92% 29.84 in 3.0 mi North 4.6 mph - N/A   Overcast
3:04 AM 28.4 °F 22.2 °F 26.6 °F 93% 29.76 in 2.5 mi North 5.8 mph - N/A   Overcast
3:53 AM 28.9 °F 25.2 °F 27.0 °F 92% 29.83 in 2.5 mi NNW 3.5 mph - N/A   Overcast
4:16 AM 30.2 °F - 26.6 °F 86% 29.76 in 3.0 mi Calm Calm - N/A   Overcast
5:02 AM 30.2 °F 25.4 °F 26.6 °F 86% 29.78 in 2.5 mi ENE 4.6 mph - N/A   Overcast
5:19 AM 28.4 °F 22.2 °F 26.6 °F 93% 29.78 in 3.0 mi North 5.8 mph - N/A   Overcast
5:31 AM 28.4 °F 20.4 °F 26.6 °F 93% 29.78 in 3.0 mi NNE 8.1 mph - N/A   Overcast
5:53 AM 28.9 °F 21.1 °F 26.1 °F 89% 29.87 in 2.5 mi North 8.1 mph - N/A   Overcast
6:09 AM 28.4 °F 19.1 °F 26.6 °F 93% 29.78 in 1.5 mi North 10.4 mph - 0.00 in Snow Light Snow
6:32 AM 28.4 °F 18.0 °F 26.6 °F 93% 29.79 in 0.5 mi North 12.7 mph - 0.00 in Fog , Snow Snow
6:40 AM 28.4 °F 19.1 °F 26.6 °F 93% 29.80 in 0.2 mi North 10.4 mph - 0.00 in Fog , Snow Snow
6:53 AM 28.0 °F 19.3 °F 26.1 °F 92% 29.90 in 0.2 mi North 9.2 mph - 0.00 in Fog , Snow Snow
7:03 AM 28.4 °F 20.4 °F 26.6 °F 93% 29.80 in 0.5 mi North 8.1 mph - 0.00 in Fog , Snow Light Snow
7:53 AM 28.0 °F 19.3 °F 27.0 °F 96% 29.93 in 0.5 mi North 9.2 mph - 0.00 in Fog , Snow Snow
8:06 AM 28.4 °F 20.4 °F 26.6 °F 93% 29.82 in 0.2 mi North 8.1 mph - 0.00 in Fog , Snow Snow
8:21 AM 28.4 °F 17.0 °F 26.6 °F 93% 29.82 in 0.5 mi North 15.0 mph 20.7 mph 0.00 in Fog , Snow Snow
8:28 AM 28.4 °F 17.0 °F 26.6 °F 93% 29.82 in 0.5 mi North 15.0 mph - 0.00 in Fog , Snow Light Snow
8:53 AM 28.0 °F 17.0 °F 27.0 °F 96% 29.94 in 0.8 mi North 13.8 mph - 0.00 in Snow Light Snow
9:16 AM 28.4 °F 20.4 °F 26.6 °F 93% 29.82 in 1.0 mi North 8.1 mph - 0.00 in Snow Light Snow
9:37 AM 30.2 °F 21.3 °F 28.4 °F 93% 29.82 in 1.8 mi North 10.4 mph - 0.00 in   Overcast
9:53 AM 30.9 °F 21.7 °F 28.0 °F 89% 29.93 in 2.0 mi North 11.5 mph - 0.00 in   Overcast
10:02 AM 30.2 °F 19.8 °F 28.4 °F 93% 29.82 in 1.8 mi North 13.8 mph - N/A   Overcast
10:20 AM 32.0 °F 22.1 °F 28.4 °F 87% 29.83 in 1.0 mi North 13.8 mph - 0.00 in Snow Light Snow
10:46 AM 33.8 °F 26.4 °F 28.4 °F 81% 29.82 in 2.0 mi NNE 9.2 mph - 0.01 in Snow Light Snow
10:53 AM 33.1 °F 24.4 °F 28.9 °F 85% 29.93 in 3.0 mi NNE 11.5 mph - 0.01 in   Overcast
11:40 AM 35.6 °F 25.9 °F 30.2 °F 81% 29.82 in 6.0 mi North 16.1 mph - 0.02 in   Haze
11:53 AM 36.0 °F 27.1 °F 30.0 °F 79% 29.92 in 4.0 mi North 13.8 mph 18.4 mph 0.02 in   Haze
12:20 PM 37.4 °F 27.2 °F 30.2 °F 75% 29.81 in 7.0 mi North 19.6 mph 25.3 mph N/A   Overcast
12:53 PM 42.1 °F 31.9 °F 30.0 °F 62% 29.89 in 9.0 mi NNE 26.5 mph 33.4 mph N/A   Mostly Cloudy
1:53 PM 43.0 °F 32.7 °F 26.1 °F 51% 29.89 in 9.0 mi NNE 28.8 mph 43.7 mph N/A   Clear
2:53 PM 44.1 °F 34.4 °F 24.1 °F 45% 29.91 in 9.0 mi NNE 27.6 mph 40.3 mph N/A   Clear
3:53 PM 44.1 °F 33.7 °F 19.9 °F 38% 29.92 in 6.0 mi NNE 32.2 mph 44.9 mph N/A   Haze
4:53 PM 41.0 °F 28.8 °F 17.1 °F 38% 29.98 in 8.0 mi NNE 36.8 mph 46.0 mph N/A   Clear
5:53 PM 37.0 °F 24.7 °F 12.0 °F 36% 30.04 in 9.0 mi NNE 28.8 mph 42.6 mph N/A   Clear
6:53 PM 34.0 °F 22.7 °F 14.0 °F 44% 30.11 in 10.0 mi North 19.6 mph - N/A   Clear
7:53 PM 33.1 °F 20.9 °F 16.0 °F 50% 30.15 in 10.0 mi North 21.9 mph 33.4 mph N/A   Clear
8:53 PM 33.1 °F 20.9 °F 17.1 °F 52% 30.17 in 10.0 mi North 21.9 mph 29.9 mph N/A   Overcast
9:53 PM 32.0 °F 19.8 °F 18.0 °F 56% 30.19 in 10.0 mi NNE 20.7 mph 29.9 mph N/A   Overcast
10:53 PM 30.0 °F 18.3 °F 19.9 °F 66% 30.19 in 10.0 mi NNE 17.3 mph - N/A   Overcast
11:53 PM 28.9 °F 18.6 °F 19.9 °F 69% 30.18 in 9.0 mi NNE 12.7 mph - N/A   Overcast